Regional Weather Roundup
Issued by NWS

Home | Current Version | Previous Version | Graphics & Text | Print | Product List | Glossary On
Versions: 1 2 3 4 5 6 7 8 9 10 11 12 13 14 15 16 17 18 19 20 21 22 23 24 25 26 27 28 29 30 31 32 33 34 35 36 37 38 39 40 41 42 43 44 45 46 47 48 49 50
000
ASUS43 KLMK 032210
RWRKY
KENTUCKY REGIONAL WEATHER ROUNDUP
NATIONAL WEATHER SERVICE LOUISVILLE KY
600 PM EDT FRI JUL 03 2015

NOTE "FAIR" INDICATES FEW OR NO CLOUDS BELOW 12,000 FEET
WITH NO SIGNIFICANT WEATHER AND/OR OBSTRUCTIONS TO VISIBILITY.

KYZ001>023-026-027-061>063-070>075-032300-
WESTERN AND SOUTH CENTRAL KENTUCKY

CITY           SKY/WX    TMP DP  RH WIND       PRES   REMARKS
PADUCAH        PTSUNNY   73  69  87 CALM      29.85F
HENDERSON      MOSUNNY   81  70  69 NW8       29.82S
OWENSBORO      TSTM      81  70  69 N8        29.84R HAZE
HOPKINSVILLE   NOT AVBL
BOWLING GREEN  LGT RAIN  72  67  84 NW8       29.87R
GLASGOW        CLOUDY    75  69  80 W6        29.85S THUNDER
$$

KYZ024-025-028>034-038-045-046-053-032300-
NORTH CENTRAL KENTUCKY

CITY           SKY/WX    TMP DP  RH WIND       PRES   REMARKS
LOUISVILLE/SDF PTSUNNY   79  69  71 N5        29.83S
LOUISVILLE/LOU PTSUNNY   77  71  82 CALM      29.84R
FORT KNOX      DRIZZLE   73  70  88 S5        29.84R
$$

KYZ035>037-039>044-047>052-055>060-089>105-032300-
NORTHEAST KENTUCKY

CITY           SKY/WX    TMP DP  RH WIND       PRES   REMARKS
LEXINGTON      CLOUDY    71  69  93 CALM      29.85R
COVINGTON      CLOUDY    74  64  71 NE12      29.86S
FRANKFORT      CLOUDY    74  69  85 CALM      29.83F
$$

KYZ054-064>069-076>088-106>120-032300-
SOUTHEAST KENTUCKY

CITY           SKY/WX    TMP DP  RH WIND       PRES   REMARKS
JACKSON        PTSUNNY   74  67  78 VRB5      29.88R
LONDON         LGT RAIN  72  66  81 W3        29.88R
SOMERSET       CLOUDY    72  70  94 W3        29.88F
MIDDLESBORO    CLOUDY    76  72  87 S5        29.88F
MONTICELLO     CLOUDY    79  72  79 SW13      29.90R
$$



USA.gov is the U.S. government's official web portal to all federal, state and local government web resources and services.